Thermal
DateTemperatureDew Point
10/17 - 02:00 PM85.2°35.9°
10/17 - 01:45 PM84.5°35.7°
10/17 - 01:30 PM83.9°35.3°
10/17 - 01:15 PM82.7°37.9°
10/17 - 01:00 PM82.0°39.2°
10/17 - 12:45 PM81.2°40.8°
10/17 - 12:30 PM80.3°48.0°
10/17 - 12:15 PM79.4°50.4°
10/17 - 12:00 PM79.0°51.0°
10/17 - 11:45 AM78.2°50.1°
10/17 - 11:30 AM78.5°48.1°
10/17 - 11:15 AM78.4°48.0°
10/17 - 11:00 AM77.7°44.3°
10/17 - 10:45 AM76.9°44.1°
10/17 - 10:30 AM75.2°46.8°
10/17 - 10:15 AM75.2°47.3°
10/17 - 10:00 AM75.3°46.6°
10/17 - 09:45 AM76.5°41.7°
10/17 - 09:30 AM75.9°40.9°
10/17 - 09:15 AM74.2°38.9°
10/17 - 09:00 AM72.0°36.8°
10/17 - 08:45 AM69.4°34.1°
10/17 - 08:30 AM65.7°38.1°
10/17 - 08:15 AM63.5°39.9°
10/17 - 08:00 AM62.9°38.8°
10/17 - 07:45 AM59.5°39.5°
10/17 - 07:30 AM59.0°37.4°
10/17 - 07:15 AM56.4°38.5°
10/17 - 07:00 AM56.2°37.3°
10/17 - 06:45 AM55.7°39.0°
10/17 - 06:30 AM55.6°39.5°
10/17 - 06:15 AM56.8°37.2°
10/17 - 06:00 AM58.4°36.9°
10/17 - 05:45 AM58.5°35.2°
10/17 - 05:30 AM58.5°36.0°
10/17 - 05:15 AM58.9°36.0°
10/17 - 05:00 AM59.5°34.8°
10/17 - 04:45 AM59.5°35.0°
10/17 - 04:30 AM61.2°33.5°
10/17 - 04:15 AM61.3°32.7°
10/17 - 04:00 AM60.9°33.9°
10/17 - 03:45 AM58.4°35.2°
10/17 - 03:30 AM58.2°35.5°
10/17 - 03:15 AM57.5°35.7°
10/17 - 03:00 AM57.6°37.8°
10/17 - 02:45 AM58.4°37.7°
10/17 - 02:30 AM59.0°36.4°
10/17 - 02:15 AM58.8°37.2°
10/17 - 02:00 AM59.9°36.3°
10/17 - 01:45 AM60.4°36.4°
10/17 - 01:30 AM60.3°37.1°
10/17 - 01:15 AM59.2°38.5°
10/17 - 01:00 AM59.5°38.8°
10/17 - 12:45 AM61.5°37.7°
10/17 - 12:30 AM62.6°37.1°
10/17 - 12:15 AM64.0°37.0°
10/17 - 12:00 AM67.5°33.9°
10/16 - 11:45 PM69.3°32.5°
10/16 - 11:30 PM67.7°34.1°
10/16 - 11:15 PM67.9°34.2°
10/16 - 11:00 PM67.2°34.9°
10/16 - 10:45 PM66.8°35.4°
10/16 - 10:30 PM65.9°38.1°
10/16 - 10:15 PM65.8°37.4°
10/16 - 10:00 PM64.9°39.7°
10/16 - 09:45 PM63.2°43.2°
10/16 - 09:30 PM63.4°43.8°
10/16 - 09:15 PM62.5°46.5°
10/16 - 09:00 PM62.1°49.3°
10/16 - 08:45 PM62.9°51.5°
10/16 - 08:30 PM63.6°51.6°
10/16 - 08:15 PM64.0°51.0°
10/16 - 08:00 PM64.9°48.5°
10/16 - 07:45 PM67.1°44.0°
10/16 - 07:30 PM66.5°45.4°
10/16 - 07:15 PM68.1°45.1°
10/16 - 07:00 PM69.1°44.5°
10/16 - 06:45 PM68.6°47.0°
10/16 - 06:30 PM69.3°49.2°
10/16 - 06:15 PM71.9°49.9°
10/16 - 06:00 PM77.1°47.5°
10/16 - 05:45 PM81.5°44.3°
10/16 - 05:30 PM84.9°43.4°
10/16 - 05:15 PM86.9°42.8°
10/16 - 05:00 PM88.2°41.6°
10/16 - 04:45 PM87.4°39.5°
10/16 - 04:30 PM88.4°37.2°
10/16 - 04:15 PM89.4°36.7°
10/16 - 04:00 PM89.6°33.7°
10/16 - 03:45 PM90.5°33.6°
10/16 - 03:30 PM90.7°32.4°
10/16 - 03:15 PM90.4°31.2°
10/16 - 03:00 PM89.8°33.4°
10/16 - 02:45 PM91.1°29.9°
10/16 - 02:30 PM90.0°30.5°
10/16 - 02:15 PM90.3°30.9°
10/16 - 02:00 PM89.6°29.8°
10/16 - 01:45 PM89.7°29.9°
10/16 - 01:30 PM89.2°29.7°
10/16 - 01:15 PM89.4°26.6°
10/16 - 01:00 PM88.5°26.9°
10/16 - 12:45 PM88.0°26.9°
10/16 - 12:30 PM87.4°27.4°
10/16 - 12:15 PM87.1°27.5°
10/16 - 12:00 PM86.3°29.2°
10/16 - 11:45 AM85.7°29.4°
10/16 - 11:30 AM84.8°30.1°
10/16 - 11:15 AM83.7°32.8°
10/16 - 11:00 AM82.3°34.6°
10/16 - 10:45 AM81.1°35.7°
10/16 - 10:30 AM79.7°37.1°
10/16 - 10:15 AM77.6°36.5°
10/16 - 10:00 AM75.4°37.0°
10/16 - 09:45 AM74.0°35.7°
10/16 - 09:30 AM73.2°35.3°
10/16 - 09:15 AM72.9°34.0°
10/16 - 09:00 AM70.6°31.0°
10/16 - 08:45 AM68.1°31.8°
10/16 - 08:30 AM66.0°32.1°
10/16 - 08:15 AM64.8°32.2°
10/16 - 08:00 AM64.3°29.5°
10/16 - 07:45 AM64.7°25.8°
10/16 - 07:30 AM63.0°26.4°
10/16 - 07:15 AM61.3°25.4°
10/16 - 07:00 AM57.2°28.7°
10/16 - 06:45 AM57.7°28.5°
10/16 - 06:30 AM58.6°27.2°
10/16 - 06:15 AM60.0°26.2°
10/16 - 06:00 AM60.9°24.7°
10/16 - 05:45 AM61.5°24.6°
10/16 - 05:30 AM62.2°24.7°
10/16 - 05:15 AM62.2°25.0°
10/16 - 05:00 AM62.2°26.1°
10/16 - 04:45 AM63.1°25.6°
10/16 - 04:30 AM62.9°24.9°
10/16 - 04:15 AM58.7°27.3°
10/16 - 04:00 AM57.0°30.3°
10/16 - 03:45 AM60.3°28.6°
10/16 - 03:30 AM62.7°25.1°
10/16 - 03:15 AM62.3°25.7°
10/16 - 03:00 AM63.7°25.1°
10/16 - 02:45 AM64.4°25.5°
10/16 - 02:30 AM63.9°26.0°
10/16 - 02:15 AM64.8°25.4°
10/16 - 02:00 AM63.1°27.1°
10/16 - 01:45 AM62.8°28.2°
10/16 - 01:30 AM63.9°26.9°
10/16 - 01:15 AM62.2°28.7°
10/16 - 01:00 AM66.1°27.6°
10/16 - 12:45 AM69.6°23.7°
10/16 - 12:30 AM70.0°23.5°
10/16 - 12:15 AM67.6°24.1°
10/16 - 12:00 AM64.7°28.2°
10/15 - 11:45 PM67.2°26.4°
10/15 - 11:30 PM68.0°26.5°
10/15 - 11:15 PM67.3°26.2°
10/15 - 11:00 PM67.2°27.8°
10/15 - 10:45 PM67.5°27.7°
10/15 - 10:30 PM67.0°29.0°
10/15 - 10:15 PM67.4°29.0°
10/15 - 10:00 PM69.8°27.2°
10/15 - 09:45 PM67.4°26.6°
10/15 - 09:30 PM67.2°29.9°
10/15 - 09:15 PM69.4°27.9°
10/15 - 09:00 PM70.1°26.8°
10/15 - 08:45 PM68.9°29.7°
10/15 - 08:30 PM68.0°31.3°
10/15 - 08:15 PM68.2°32.3°
10/15 - 08:00 PM68.0°32.9°
10/15 - 07:45 PM69.6°32.0°
10/15 - 07:30 PM71.4°31.3°
10/15 - 07:15 PM71.6°31.0°
10/15 - 07:00 PM72.7°31.8°
10/15 - 06:45 PM73.3°32.4°
10/15 - 06:30 PM73.9°33.7°
10/15 - 06:15 PM75.4°33.4°
10/15 - 06:00 PM77.3°34.3°
10/15 - 05:45 PM80.5°34.0°
10/15 - 05:30 PM82.7°33.9°
10/15 - 05:15 PM83.9°33.3°
10/15 - 05:00 PM84.9°32.8°
10/15 - 04:45 PM85.5°31.8°
10/15 - 04:30 PM85.5°30.7°
10/15 - 04:15 PM85.9°31.2°
10/15 - 04:00 PM86.1°31.9°
10/15 - 03:45 PM86.0°31.9°
10/15 - 03:30 PM86.1°31.1°
10/15 - 03:15 PM86.0°30.8°
10/15 - 03:00 PM85.9°30.7°
10/15 - 02:45 PM86.0°31.4°